Voltar ao catálogo

ATLAS 5 CENTAUR DEB

AtivoHEO
NORAD 46601·DEBRIS·🇺🇸 United States

Lançado Oct 17, 2018 de Cape Canaveral Space Force Station

Loading…

Próximas Passagens (próximas 24 horas)

TLE

AtualizadoSource: Space-Track

Época: Sep 11, 2026, 14:19 UTC

1 46601U 18079BZ  26254.59676098 -.00000179  00000-0  00000-0 0  9999
2 46601  13.1875  28.6551 4419417 334.3897   8.9989  1.85681997 43103

Acompanhe ATLAS 5 CENTAUR DEB em tempo real com AllMySat

Download on the App Store